Location: Ertinghausen
(51.6624°N, 9.7874°E)
Time: 12:52:18
(UTC+00:00)

CZ-2C R/B - Pass Details

Date: 17 August 2024
Orbit: 703 x 903 km, 98.2° (Epoch: 14 September)

Event Time Altitude Azimuth Distance (km) Brightness Sun altitude
Rises 23:30:13 0° 33° (NNE) 3,259 7.2 -25.3°
Reaches altitude 10° 23:35:30 10° 79° (E) 2,390 5.7 -25.3°
Maximum altitude 23:35:52 10° 83° (E) 2,390 5.7 -25.3°
Drops below altitude 10° 23:36:13 10° 87° (E) 2,398 5.6 -25.3°
Enters shadow 23:37:56 - 105° (ESE) 2,556 5.6 -25.3°
